Accueil
METAR-TAF:

METAR-TAF

Aéroports :

Nenana, Alaska, États-Unis

latitude: 64-33N, longitude: 149-05W, altitude: 110 m

Observation

Le bulletin a été fait il y a 9 heures et 26 minutes, à 05:53 UTC
Vent 6 kt de sud/sud-est
Température 16°C
Humidité 36%
Pression 1004 hPa
Visibilité: 16.1 km
Ciel clair

METAR: PANN 200553Z AUTO 16006KT 10SM CLR 16/01 A2965 RMK AO2 SLP044 T01610006 10189 20161 55003 TSNO

Heure: 07:19 (15:19 UTC)


TAF: absent

Observations et prévisions météorologiques de plus de 4000 aéroports (messages METAR et TAF).

Les stations disponibles sont représentées par des disques jaunes et rouges sur la carte.

Passer la souris dessus pour voir le nom de la station.

Cliquer dessus pour voir les observations et prévisions météorologiques.

Pour changer de carte: cliquez sur les boutons verts avec une croix noire pour zoomer, sur le bouton vert avec un tiret pour effectuer un zoom arrière, ou sur les flèches vertes pour les cartes adjacentes.


METAR-TAF: